Barter Island, AK

1:47 PM AKDT on March 30, 2017 (GMT -0800)
Barter Island LRRS

Weather History for PABA - April, 2014

Change the Weather History Date:

Sunday, April 6, 2014

  Actual Average Record
Temperature  
Mean Temperature -10 °F -  
Max Temperature -14 °F 6 °F 28 °F (1997)
Min Temperature -13 °F -6 °F -29 °F (2013)
Degree Days  
Heating Degree Days 74    
Moisture  
Dew Point -15 °F    
Average Humidity 77    
Maximum Humidity 83    
Minimum Humidity 71    
Precipitation  
Precipitation 0.00 in - - ()
Sea Level Pressure  
Sea Level Pressure 29.90 in    
Wind  
Wind Speed 13 mph (West)    
Max Wind Speed 16 mph    
Max Gust Speed -    
Visibility 7 miles    
Events Snow    
Averages and records for this station are not official NWS values.
T = Trace of Precipitation, MM = Missing Value Source: NWS Daily Summary

Daily Weather History Graph

Daily Weather History Graph

Search for Another Location

Airport or City:

Trip Planner

Search our weather history database for the weather conditions in past years. The results will help you decide how hot, cold, wet, or windy it might be!

Date:

Astronomy

Apr. 06, 2014 Rise Set
Actual Time 6:11 AM AKDT 9:04 PM AKDT
Civil Twilight 5:01 AM AKDT 10:15 PM AKDT
Nautical Twilight 3:02 AM AKDT 12:22 AM AKDT
Astronomical Twilight Sun does not rise Sun does not rise
Moon 8:59 AM AKDT (4/6) 5:29 AM AKDT (4/6)
Length of Visible Light 17h 14m
Length of Day
14h 52m
Waxing Crescent, 45% of the Moon is Illuminated
Apr 6
Waxing Crescent
Apr 7
First Quarter
Apr 14
Full
Apr 21
Last Quarter
Apr 28
New

Hourly Weather History & Observations

Time (AKDT) Temp. Windchill Dew Point Humidity Pressure Visibility Wind Dir Wind Speed Gust Speed Precip Events Conditions
12:01 AM -8.0 °F -29.6 °F -11.9 °F 83% 29.84 in 8.0 mi West 15.0 mph - 0.00 in Snow Light Snow
1:01 AM -9.0 °F -29.3 °F -14.1 °F 79% 29.85 in 9.0 mi West 12.7 mph - 0.00 in Snow Light Snow
2:01 AM -9.0 °F -31.7 °F -13.0 °F 83% 29.86 in 7.0 mi West 16.1 mph - 0.00 in Snow Light Snow
3:01 AM -9.9 °F -31.3 °F -15.0 °F 78% 29.86 in 9.0 mi West 13.8 mph - 0.00 in Snow Light Snow
4:01 AM -11.0 °F -32.7 °F -15.0 °F 83% 29.87 in 7.0 mi West 13.8 mph - 0.00 in Snow Light Snow
4:16 AM -9.4 °F -29.8 °F -14.8 °F 77% 29.87 in 2.5 mi West 12.7 mph - 0.00 in Snow Light Snow
4:28 AM -9.4 °F -29.8 °F -14.8 °F 77% 29.87 in 3.0 mi West 12.7 mph - 0.00 in Snow Light Snow
4:37 AM -9.4 °F -29.8 °F -14.8 °F 77% 29.87 in 6.0 mi West 12.7 mph - 0.00 in Snow Light Snow
5:01 AM -11.0 °F -30.9 °F -15.0 °F 83% 29.88 in 8.0 mi West 11.5 mph - N/A Snow Light Snow
6:01 AM -11.0 °F -29.9 °F -16.1 °F 78% 29.88 in 7.0 mi West 10.4 mph - 0.00 in Snow Light Snow
7:01 AM -11.9 °F -32.0 °F -17.0 °F 78% 29.89 in 9.0 mi West 11.5 mph - 0.00 in Snow Light Snow
8:01 AM -11.9 °F -33.8 °F -17.0 °F 78% 29.89 in 9.0 mi West 13.8 mph - 0.00 in Snow Light Snow
9:01 AM -11.0 °F -30.9 °F -16.1 °F 78% 29.89 in 9.0 mi West 11.5 mph - 0.00 in   Clear
9:42 AM -9.4 °F -31.4 °F -16.6 °F 71% 29.89 in 1.8 mi West 15.0 mph - 0.00 in Snow Light Snow
9:57 AM -11.2 °F -32.9 °F -16.6 °F 77% 29.89 in 3.0 mi West 13.8 mph - 0.00 in Snow Light Snow
10:01 AM -11.0 °F -32.7 °F -16.1 °F 78% 29.90 in 4.0 mi West 13.8 mph - 0.00 in Snow Light Snow
11:01 AM -9.0 °F -30.2 °F -15.0 °F 75% 29.90 in 4.0 mi West 13.8 mph - 0.00 in Snow Light Snow
12:01 PM -9.0 °F -30.9 °F -15.0 °F 75% 29.90 in 10.0 mi West 15.0 mph - 0.00 in   Clear
1:01 PM -8.0 °F -28.0 °F -14.1 °F 75% 29.91 in 9.0 mi West 12.7 mph - N/A   Clear
2:01 PM -7.1 °F -28.4 °F -13.0 °F 75% 29.92 in 8.0 mi West 15.0 mph - N/A   Clear
3:01 PM -7.1 °F -26.8 °F -13.0 °F 75% 29.92 in 10.0 mi West 12.7 mph - 0.00 in   Clear
4:01 PM -6.0 °F -25.5 °F -13.0 °F 72% 29.92 in 10.0 mi West 12.7 mph - 0.00 in   Clear
5:01 PM -6.0 °F -24.6 °F -11.9 °F 75% 29.92 in 10.0 mi West 11.5 mph - 0.00 in   Clear
6:01 PM -7.1 °F -23.9 °F -13.0 °F 75% 29.92 in 9.0 mi West 9.2 mph - 0.00 in Snow Light Snow
7:01 PM -8.0 °F -22.5 °F -14.1 °F 75% 29.92 in 10.0 mi West 6.9 mph - 0.00 in Snow Light Snow
8:01 PM -9.9 °F -26.3 °F -15.0 °F 78% 29.92 in 9.0 mi West 8.1 mph - 0.00 in Snow Light Snow
9:01 PM -11.9 °F -28.7 °F -17.0 °F 78% 29.93 in 10.0 mi West 8.1 mph - 0.00 in   Scattered Clouds
10:01 PM -13.0 °F -30.0 °F -17.0 °F 82% 29.93 in 8.0 mi West 8.1 mph - N/A Snow Light Snow
11:01 PM -11.2 °F -27.8 °F -16.6 °F 77% 29.93 in 5.0 mi West 8.1 mph - N/A Snow Light Snow
11:26 PM -13.0 °F -28.6 °F -18.4 °F 77% 29.93 in 8.0 mi West 6.9 mph - N/A Snow Light Snow